Weather History for Richmond, KY

Change the Weather History Date:

Thursday, September 12, 2013

  Actual Average (KLOZ) Record (KLOZ)
Temperature  
Mean Temperature 76 °F 70 °F  
Max Temperature 84 °F 81 °F 90 °F (2005)
Min Temperature 68 °F 59 °F 43 °F (1976)
Degree Days  
Heating Degree Days 0 1  
Month to date heating degree days 2  
Since 1 July heating degree days 3  
Cooling Degree Days 11 5  
Month to date cooling degree days 82  
Growing Degree Days 26 (Base 50)    
Moisture  
Dew Point 67 °F    
Average Humidity 82    
Maximum Humidity 94    
Minimum Humidity 62    
Precipitation  
Precipitation 0.00 in 0.12 in 1.59 in (1975)
Month to date precipitation 1.32  
Sea Level Pressure  
Sea Level Pressure 30.01 in    
Wind  
Wind Speed 5 mph (WSW)    
Max Wind Speed 16 mph    
Max Gust Speed 23 mph    
Visibility 7 miles    
Events      
T = Trace of Precipitation, MM = Missing Value Source: NWS Daily Summary

Daily Weather History Graph

Daily Weather History Graph

Search for Another Location

Airport:

Trip Planner

Search our weather history database for the weather conditions in past years. The results will help you decide how hot, cold, wet, or windy it might be!

Date:

Astronomy

Sep. 12, 2013 Rise Set
Actual Time 7:16 AM EDT 7:49 PM EDT
Civil Twilight 6:50 AM EDT 8:15 PM EDT
Nautical Twilight 6:19 AM EDT 8:46 PM EDT
Astronomical Twilight 5:47 AM EDT 9:18 PM EDT
Moon 2:36 PM EDT (9/12) No Moon Set
Length of Visible Light 13h 25m
Length of Day
12h 32m
Waxing Crescent, 50% of the Moon is Illuminated
Sep 12
Waxing Crescent
Sep 12
First Quarter
Sep 19
Full
Sep 26
Last Quarter
Oct 4
New

Hourly Weather History & Observations

Time (EDT) Temp. Heat Index Dew Point Humidity Pressure Visibility Wind Dir Wind Speed Gust Speed Precip Events Conditions
12:15 AM 69.8 °F - 66.2 °F 88% 30.10 in 7.0 mi SSW 4.6 mph - N/A   Clear
12:35 AM 69.8 °F - 66.2 °F 88% 30.09 in 7.0 mi SW 3.5 mph - N/A   Clear
12:55 AM 69.8 °F - 66.2 °F 88% 30.09 in 7.0 mi Calm Calm - N/A   Clear
1:15 AM 69.8 °F - 66.2 °F 88% 30.09 in 7.0 mi South 3.5 mph - N/A   Clear
1:55 AM 69.8 °F - 66.2 °F 88% 30.08 in 7.0 mi SSW 4.6 mph - N/A   Clear
2:15 AM 69.8 °F - 66.2 °F 88% 30.08 in 7.0 mi SSW 4.6 mph - N/A   Clear
2:35 AM 69.8 °F - 66.2 °F 88% 30.08 in 7.0 mi Calm Calm - N/A   Clear
2:55 AM 69.8 °F - 66.2 °F 88% 30.08 in 5.0 mi Calm Calm - N/A   Clear
3:15 AM 68.0 °F - 66.2 °F 94% 30.08 in 5.0 mi South 4.6 mph - N/A   Clear
3:35 AM 68.0 °F - 66.2 °F 94% 30.08 in 7.0 mi South 4.6 mph - N/A   Clear
3:55 AM 69.8 °F - 66.2 °F 88% 30.07 in 7.0 mi South 4.6 mph - N/A   Clear
4:15 AM 68.0 °F - 66.2 °F 94% 30.07 in 7.0 mi SSW 5.8 mph - N/A   Clear
4:35 AM 69.8 °F - 66.2 °F 88% 30.07 in 7.0 mi SSW 4.6 mph - N/A   Clear
4:55 AM 68.0 °F - 66.2 °F 94% 30.07 in 7.0 mi SW 6.9 mph - N/A   Clear
5:15 AM 68.0 °F - 66.2 °F 94% 30.07 in 7.0 mi SSW 5.8 mph - N/A   Clear
5:35 AM 68.0 °F - 64.4 °F 88% 30.07 in 7.0 mi SSW 5.8 mph - N/A   Clear
5:55 AM 68.0 °F - 64.4 °F 88% 30.06 in 7.0 mi SSW 4.6 mph - N/A   Clear
6:15 AM 68.0 °F - 66.2 °F 94% 30.06 in 7.0 mi South 8.1 mph - N/A   Clear
6:35 AM 68.0 °F - 66.2 °F 94% 30.05 in 7.0 mi South 5.8 mph - N/A   Clear
6:55 AM 68.0 °F - 66.2 °F 94% 30.06 in 7.0 mi SSW 4.6 mph - N/A   Clear
7:15 AM 68.0 °F - 66.2 °F 94% 30.07 in 7.0 mi SSW 5.8 mph - N/A   Clear
7:35 AM 68.0 °F - 66.2 °F 94% 30.07 in 5.0 mi SSW 3.5 mph - N/A   Clear
7:55 AM 68.0 °F - 66.2 °F 94% 30.07 in 4.0 mi SSW 4.6 mph - N/A   Clear
8:15 AM 68.0 °F - 66.2 °F 94% 30.07 in 4.0 mi South 5.8 mph - N/A   Clear
8:35 AM 68.0 °F - 66.2 °F 94% 30.07 in 2.5 mi SSW 5.8 mph - N/A   Clear
8:55 AM 69.8 °F - 66.2 °F 88% 30.07 in 5.0 mi SSW 5.8 mph - N/A   Clear
9:15 AM 71.6 °F - 68.0 °F 88% 30.07 in 5.0 mi SSW 5.8 mph - N/A   Clear
9:35 AM 73.4 °F - 68.0 °F 83% 30.06 in 5.0 mi SSW 6.9 mph - N/A   Clear
9:55 AM 73.4 °F - 68.0 °F 83% 30.06 in 5.0 mi SW 6.9 mph - N/A   Clear
10:15 AM 75.2 °F - 68.0 °F 78% 30.06 in 7.0 mi SW 8.1 mph - N/A   Clear
10:35 AM 77.0 °F - 68.0 °F 74% 30.06 in 7.0 mi WSW 6.9 mph - N/A   Clear
10:55 AM 77.0 °F - 68.0 °F 74% 30.06 in 7.0 mi WSW 6.9 mph - N/A   Clear
11:15 AM 77.0 °F - 68.0 °F 74% 30.05 in 7.0 mi WSW 10.4 mph - N/A   Clear
11:35 AM 78.8 °F - 68.0 °F 69% 30.05 in 7.0 mi SW 10.4 mph - N/A   Clear
11:55 AM 80.6 °F 83.9 °F 69.8 °F 70% 30.05 in 7.0 mi WSW 8.1 mph - N/A   Clear
12:15 PM 80.6 °F 83.9 °F 69.8 °F 70% 30.05 in 7.0 mi West 10.4 mph - N/A   Scattered Clouds
12:35 PM 82.4 °F 87.2 °F 71.6 °F 70% 30.04 in 7.0 mi WSW 4.6 mph - N/A   Scattered Clouds
12:55 PM 82.4 °F 87.2 °F 71.6 °F 70% 30.03 in 7.0 mi WSW 6.9 mph - N/A   Overcast
1:15 PM 82.4 °F 87.2 °F 71.6 °F 70% 30.03 in 10.0 mi West 8.1 mph - N/A   Mostly Cloudy
1:35 PM 82.4 °F 87.2 °F 71.6 °F 70% 30.01 in 7.0 mi West 9.2 mph - N/A   Mostly Cloudy
1:55 PM 84.2 °F 89.6 °F 71.6 °F 66% 29.99 in 7.0 mi West 8.1 mph - N/A   Mostly Cloudy
2:15 PM 84.2 °F 88.4 °F 69.8 °F 62% 29.99 in 10.0 mi WSW 10.4 mph 17.3 mph N/A   Overcast
2:35 PM 80.6 °F 83.2 °F 68.0 °F 65% 29.98 in 10.0 mi NNW 11.5 mph - N/A   Overcast
2:55 PM 77.0 °F - 68.0 °F 74% 29.98 in 7.0 mi North 16.1 mph 23.0 mph N/A   Overcast
3:15 PM 75.2 °F - 69.8 °F 83% 29.96 in 7.0 mi Calm Calm - N/A   Mostly Cloudy
3:35 PM 77.0 °F - 71.6 °F 83% 29.96 in 5.0 mi North 9.2 mph - N/A   Mostly Cloudy
3:55 PM 77.0 °F - 69.8 °F 78% 29.96 in 7.0 mi North 5.8 mph - N/A   Mostly Cloudy
4:15 PM 77.0 °F - 68.0 °F 74% 29.93 in 7.0 mi NNW 5.8 mph 23.0 mph N/A   Mostly Cloudy
4:35 PM 77.0 °F - 68.0 °F 74% 29.92 in 7.0 mi NW 5.8 mph - N/A   Mostly Cloudy
4:55 PM 78.8 °F - 68.0 °F 69% 29.92 in 7.0 mi WNW 5.8 mph - N/A   Mostly Cloudy
5:15 PM 78.8 °F - 69.8 °F 74% 29.91 in 7.0 mi WSW 4.6 mph - N/A   Scattered Clouds
5:35 PM 80.6 °F 83.9 °F 69.8 °F 70% 29.92 in 7.0 mi West 4.6 mph - N/A   Mostly Cloudy
5:55 PM 78.8 °F - 69.8 °F 74% 29.92 in 7.0 mi NW 6.9 mph - N/A   Scattered Clouds
6:15 PM 78.8 °F - 69.8 °F 74% 29.93 in 7.0 mi NNW 4.6 mph - N/A   Scattered Clouds
6:35 PM 77.0 °F - 68.0 °F 74% 29.94 in 10.0 mi NNW 6.9 mph - N/A   Mostly Cloudy
6:55 PM 77.0 °F - 66.2 °F 69% 29.95 in 7.0 mi WNW 9.2 mph - N/A   Mostly Cloudy
7:15 PM 75.2 °F - 66.2 °F 73% 29.94 in 7.0 mi WNW 5.8 mph - N/A   Scattered Clouds
7:35 PM 75.2 °F - 66.2 °F 73% 29.93 in 7.0 mi NW 5.8 mph - N/A   Scattered Clouds
7:55 PM 73.4 °F - 66.2 °F 78% 29.93 in 7.0 mi WNW 4.6 mph - N/A   Clear
8:15 PM 71.6 °F - 66.2 °F 83% 29.94 in 10.0 mi WNW 4.6 mph - N/A   Clear
8:35 PM 71.6 °F - 66.2 °F 83% 29.94 in 10.0 mi West 4.6 mph - N/A   Clear
8:55 PM 71.6 °F - 64.4 °F 78% 29.95 in 10.0 mi West 3.5 mph - N/A   Clear
9:15 PM 69.8 °F - 64.4 °F 83% 29.96 in 10.0 mi West 4.6 mph - N/A   Clear
9:35 PM 69.8 °F - 64.4 °F 83% 29.96 in 10.0 mi West 3.5 mph - N/A   Clear
9:55 PM 69.8 °F - 64.4 °F 83% 29.95 in 7.0 mi West 4.6 mph - N/A   Clear
10:15 PM 68.0 °F - 64.4 °F 88% 29.95 in 10.0 mi WSW 3.5 mph - N/A   Clear
10:35 PM 69.8 °F - 64.4 °F 83% 29.95 in 10.0 mi WSW 5.8 mph - N/A   Clear
10:55 PM 69.8 °F - 64.4 °F 83% 29.95 in 10.0 mi West 4.6 mph - N/A   Clear
11:15 PM 68.0 °F - 64.4 °F 88% 29.95 in 10.0 mi WSW 5.8 mph - N/A   Clear
11:35 PM 68.0 °F - 64.4 °F 88% 29.95 in 10.0 mi WSW 6.9 mph - N/A   Clear
11:55 PM 68.0 °F - 64.4 °F 88% 29.95 in 10.0 mi WSW 6.9 mph - N/A   Clear